[[{"header":{"parameterUnit":"m.s-1","parameterCategory":1,"la1":30.2991,"la2":30.254,"lo1":-89.0895,"lo2":-89.0444,"dy":0.0017,"dx":0.0017,"nx":28,"ny":28,"refTime":"2025-12-18T09:00:00:Z","depth":0,"parameterNumber":2,"parameterNumberName":"U-component_of_WINDS"},"data":[0,0,0,0,0,0,0,0,0,0,0,0,0,0,0,0,0,0,0,0,0,0,0,0,0,0,0,0,0,0,0,0,0,0,0,0,0,0,0,0,0,0,0,0,0,0,0,0,0,0,0,0,0,0,0,0,0,0,-2.5833,-2.5834,0,-2.5912,-2.5913,-2.5914,-2.5879,-2.5877,-2.5876,-2.5874,-2.5958,-2.5962,-2.5966,0,0,0,0,0,0,0,0,0,0,0,0,0,-2.5657,-2.5661,-2.5833,-2.5834,-2.5835,-2.5912,-2.5913,-2.5914,-2.588,-2.5877,-2.5875,-2.5873,-2.5957,-2.5962,-2.5967,0,0,0,0,0,0,0,0,0,0,0,0,0,-2.5735,-2.5662,-2.5833,-2.5827,-2.5828,-2.5911,-2.5913,-2.5914,-2.588,-2.5877,-2.5874,-2.5872,-2.5956,-2.5961,-2.5967,-2.6063,0,0,-2.5986,-2.5989,0,0,0,0,0,0,0,0,-2.573,-2.5741,-2.5827,-2.5828,-2.5828,-2.5883,-2.5882,-2.5964,-2.5881,-2.586,-2.5874,-2.587,-2.5936,-2.5943,-2.5965,-2.6067,-2.607,-2.5987,-2.599,-2.5993,-2.5995,0,0,0,0,0,0,0,-2.5725,-2.5738,-2.5864,-2.5828,-2.5829,-2.5822,-2.583,-2.5897,-2.5914,-2.5862,-2.586,-2.5869,-2.5936,-2.5959,-2.5966,-2.6072,-2.5986,-2.5992,-2.5996,-2.5998,-2.6256,-2.6259,0,0,0,0,0,0,-2.5719,-2.5733,-2.5862,-2.5867,-2.5771,-2.5828,-2.5836,-2.5868,-2.5913,-2.5917,-2.5872,-2.5867,-2.595,-2.5959,-2.5969,-2.6083,-2.5993,-2.5999,-2.6002,-2.6253,-2.6257,-2.626,0,0,0,0,0,0,-2.5716,-2.5731,-2.5859,-2.5799,-2.5815,-2.5834,-2.587,-2.5871,-2.5894,-2.592,-2.5923,-2.5892,-2.5948,-2.5961,-2.6039,-2.6086,-2.6001,-2.6007,-2.6249,-2.6254,-2.6258,-2.6312,0,0,0,0,0,0,-2.5711,-2.573,-2.5765,-2.58,-2.5818,-2.5926,-2.5873,-2.5875,-2.5904,-2.59,-2.594,-2.5944,-2.5947,-2.6031,-2.6045,-2.6092,-2.6012,-2.6245,-2.6251,-2.6257,-2.6306,-2.6318,-2.6328,0,0,0,0,0,-2.5705,-2.5778,-2.5767,-2.5783,-2.5863,-2.5929,-2.594,-2.594,-2.5908,-2.5945,-2.5961,-2.5942,-2.6078,-2.6039,-2.6055,-2.6105,-2.6242,-2.6249,-2.6256,-2.6301,-2.6316,-2.6328,0,0,0,0,0,0,-2.5749,-2.5783,-2.5771,-2.5858,-2.5891,-2.5923,-2.5969,-2.5956,-2.5999,-2.5993,-2.5993,-2.6003,-2.6084,-2.6103,-2.6058,-2.62,-2.6156,-2.6166,-2.6184,-2.6198,-2.6209,-2.6202,-2.6017,0,0,0,0,0,-2.5769,-2.5819,-2.5846,-2.592,-2.5937,-2.595,-2.5979,-2.5977,-2.6011,-2.6026,-2.6048,-2.6083,-2.6134,-2.6167,-2.6215,-2.6309,-2.6318,-2.6352,-2.6363,-2.6372,-2.6381,-2.6432,-2.6447,-2.6284,-2.6284,-2.6284,0,0,-2.5811,-2.5836,-2.5867,-2.593,-2.5955,-2.6007,-2.5962,-2.602,-2.6059,-2.6035,-2.611,-2.6128,-2.6167,-2.6254,-2.6293,-2.6272,-2.6428,-2.6381,-2.6388,-2.6392,-2.6441,-2.6456,-2.647,-2.6289,-2.6288,-2.6287,0,0,-2.5914,-2.5937,-2.6001,-2.6027,-2.6065,-2.6074,-2.6089,-2.6124,-2.6134,-2.6209,-2.6192,-2.624,-2.6327,-2.6355,-2.6382,-2.6496,-2.648,-2.6512,-2.6569,-2.6618,-2.6631,-2.6643,-2.6683,-2.6697,-2.6521,-2.6521,-2.6521,0,-2.5961,-2.6038,-2.6036,-2.6095,-2.6123,-2.6103,-2.6168,-2.6194,-2.6246,-2.6267,-2.6242,-2.6351,-2.6376,-2.6469,-2.6497,-2.6519,-2.6537,-2.6506,-2.6629,-2.6641,-2.6651,-2.669,-2.6705,-2.6524,-2.6524,-2.6524,-2.6523,0,-2.6094,-2.6148,-2.6195,-2.6245,-2.6279,-2.6341,-2.6349,-2.6384,-2.6379,-2.6391,-2.6468,-2.6498,-2.6551,-2.6573,-2.657,-2.6666,-2.6651,-2.6628,-2.6584,-2.667,-2.6706,-2.6721,-2.6529,-2.6528,-2.6527,-2.6526,0,0,-2.6226,-2.6274,-2.6291,-2.6313,-2.6354,-2.6396,-2.6458,-2.6509,-2.6538,-2.6576,-2.6628,-2.6702,-2.6681,-2.671,-2.671,-2.6754,-2.6842,-2.6725,-2.6726,-2.6745,-2.6949,-2.6965,-2.6982,-2.6832,-2.6835,-2.6837,-2.6946,0,-2.6331,-2.6436,-2.6437,-2.6535,-2.6585,-2.6566,-2.662,-2.6651,-2.6664,-2.6709,-2.6724,-2.6776,-2.6744,-2.6762,-2.6805,-2.6822,-2.6882,-2.6814,-2.6881,-2.6883,-2.687,-2.7001,-2.7018,-2.7119,-2.696,-2.6962,-2.6964,0,-2.6467,-2.6507,-2.6609,-2.6642,-2.6663,-2.6711,-2.6758,-2.6801,-2.6837,-2.6843,-2.6877,-2.687,-2.6933,-2.6888,-2.6976,-2.693,-2.6957,-2.697,-2.6974,-2.6979,-2.6928,-2.7009,-2.7151,-2.7166,-2.6986,-2.6984,-2.6983,0,-2.6551,-2.6631,-2.6702,-2.6722,-2.6763,-2.6797,-2.6816,-2.6849,-2.688,-2.6922,-2.6941,-2.6991,-2.7018,-2.7056,-2.7064,-2.703,-2.7152,-2.7107,-2.7159,-2.7159,-2.7185,-2.7183,-2.7332,-2.7205,-2.7205,-2.7204,-2.7204,0,-2.6667,-2.673,-2.6741,-2.6785,-2.6855,-2.6856,-2.6927,-2.6943,-2.6973,-2.702,-2.7009,-2.7054,-2.7061,-2.7108,-2.7115,-2.7186,-2.7199,-2.7206,-2.7207,-2.7207,-2.7206,-2.7224,-2.7217,-2.7208,-2.7207,-2.7207,-2.7206,0,-2.6773,-2.6782,-2.6859,-2.6891,-2.6901,-2.6952,-2.698,-2.7022,-2.7034,-2.7094,-2.7109,-2.7127,-2.7182,-2.7194,-2.726,-2.7264,-2.7349,-2.7344,-2.7336,-2.7335,-2.7386,-2.7381,-2.7552,-2.7574,-2.7433,-2.7434,-2.7435,0,-2.6845,-2.6893,-2.6931,-2.6961,-2.6981,-2.703,-2.7061,-2.7065,-2.7097,-2.7142,-2.718,-2.7233,-2.7276,-2.7365,-2.7385,-2.7436,-2.7431,-2.7487,-2.7438,-2.7436,-2.743,-2.7427,-2.7432,-2.7496,-2.7498,-2.7499,-2.75,0,-2.6973,-2.6975,-2.7019,-2.7065,-2.7102,-2.7139,-2.7174,-2.72,-2.7208,-2.7246,-2.7301,-2.7335,-2.7401,-2.7455,-2.7505,-2.7526,-2.7515,-2.7516,-2.753,-2.7529,-2.7522,-2.7526,-2.736,-2.7511,-2.751,-2.7509,-2.7509,-2.7508,-2.7063,-2.7105,-2.7137,-2.7187,-2.7213,-2.7246,-2.7287,-2.7304,-2.735,-2.7403,-2.7403,-2.7464,-2.7499,-2.7566,-2.759,-2.7638,-2.7621,-2.7642,-2.7647,-2.7652,-2.7656,-2.7516,-2.7648,-2.7648,-2.7647,-2.7647,-2.7647,0,-2.7189,-2.7209,-2.7254,-2.7303,-2.7342,-2.7328,-2.7366,-2.74,-2.7453,-2.7486,-2.7528,-2.7592,-2.7644,-2.7669,-2.7721,-2.7755,-2.7751,-2.7768,-2.7765,-2.777,-2.767,-2.7651,-2.777,-2.777,-2.777,-2.777,-2.777,-2.777,-2.7258,-2.7327,-2.7334,-2.7417,-2.7437,-2.7495,-2.7518,-2.7549,-2.7575,-2.7646,-2.7689,-2.7704,-2.7735,-2.7789,-2.7836,-2.7842,-2.7861,-2.7881,-2.7884,-2.779,-2.7777,-2.7765,-2.7748,-2.7885,-2.7885,-2.798,-2.7981,-2.7982]},{"header":{"parameterUnit":"m.s-1","parameterCategory":1,"la1":30.2991,"la2":30.254,"lo1":-89.0895,"lo2":-89.0444,"dy":0.0017,"dx":0.0017,"nx":28,"ny":28,"refTime":"2025-12-18T09:00:00:Z","depth":0,"parameterNumber":3,"parameterNumberName":"V-component_of_WINDS"},"data":[0,0,0,0,0,0,0,0,0,0,0,0,0,0,0,0,0,0,0,0,0,0,0,0,0,0,0,0,0,0,0,0,0,0,0,0,0,0,0,0,0,0,0,0,0,0,0,0,0,0,0,0,0,0,0,0,0,0,1.1901,1.1902,0,1.202,1.2021,1.2023,1.2036,1.2034,1.2033,1.2032,1.2154,1.2159,1.2163,0,0,0,0,0,0,0,0,0,0,0,0,0,1.1684,1.1688,1.19,1.1902,1.1903,1.202,1.2021,1.2023,1.2036,1.2034,1.2033,1.2031,1.2153,1.2158,1.2163,0,0,0,0,0,0,0,0,0,0,0,0,0,1.1789,1.169,1.19,1.1924,1.1927,1.202,1.2022,1.2024,1.2036,1.2034,1.2032,1.2031,1.2151,1.2157,1.2164,1.2241,0,0,1.2184,1.2187,0,0,0,0,0,0,0,0,1.1783,1.1796,1.1919,1.1922,1.1926,1.2011,1.199,1.2097,1.2037,1.1995,1.2032,1.203,1.2108,1.2118,1.2145,1.2247,1.2252,1.2185,1.2189,1.2192,1.2193,0,0,0,0,0,0,0,1.1775,1.1791,1.1948,1.1921,1.1925,1.1929,1.1942,1.201,1.206,1.1998,1.1999,1.2013,1.211,1.2138,1.2147,1.2254,1.2185,1.219,1.2194,1.2197,1.2429,1.2431,0,0,0,0,0,0,1.1764,1.1785,1.1944,1.1951,1.1848,1.1934,1.1949,1.1986,1.2059,1.2069,1.2015,1.2014,1.2128,1.214,1.2152,1.2249,1.2191,1.2198,1.2201,1.2426,1.2429,1.2431,0,0,0,0,0,0,1.1759,1.1778,1.1939,1.1869,1.189,1.194,1.1981,1.1989,1.2017,1.2072,1.2081,1.2035,1.2127,1.2143,1.222,1.2254,1.2201,1.2207,1.2424,1.2427,1.243,1.2443,0,0,0,0,0,0,1.1753,1.1776,1.1805,1.1869,1.1893,1.2004,1.1984,1.1993,1.2029,1.2028,1.2093,1.2102,1.2127,1.221,1.2226,1.2262,1.2212,1.2421,1.2425,1.2429,1.244,1.2446,1.2452,0,0,0,0,0,1.1745,1.1803,1.1807,1.1826,1.1931,1.2006,1.202,1.2047,1.2031,1.2062,1.2097,1.21,1.2247,1.2217,1.2236,1.2274,1.2419,1.2424,1.2429,1.2437,1.2445,1.2452,0,0,0,0,0,0,1.1741,1.1812,1.1817,1.1897,1.1946,1.2008,1.2047,1.2054,1.2108,1.2105,1.2137,1.2151,1.2228,1.2258,1.2224,1.2354,1.2331,1.234,1.2331,1.2339,1.2345,1.2337,1.2217,0,0,0,0,0,1.175,1.1805,1.1864,1.193,1.1954,1.1996,1.203,1.2047,1.2099,1.2119,1.216,1.221,1.2268,1.2305,1.2361,1.2444,1.246,1.248,1.2486,1.249,1.2498,1.2547,1.2557,1.2448,1.2448,1.2448,0,0,1.1768,1.1814,1.1847,1.193,1.197,1.2027,1.2014,1.2074,1.2117,1.2128,1.2204,1.2236,1.2294,1.2375,1.2413,1.2403,1.2532,1.2497,1.25,1.2505,1.2553,1.2564,1.2573,1.2451,1.245,1.245,0,0,1.1832,1.1871,1.1931,1.1971,1.2032,1.206,1.2075,1.2137,1.2159,1.2235,1.2246,1.2297,1.2395,1.2437,1.2471,1.2553,1.2558,1.257,1.2602,1.2649,1.2658,1.2666,1.2697,1.2708,1.2577,1.2577,1.2577,0,1.1847,1.1933,1.1961,1.2022,1.206,1.2073,1.2135,1.2173,1.2248,1.2274,1.2262,1.2387,1.2427,1.2519,1.2539,1.2566,1.2585,1.2563,1.2654,1.2663,1.267,1.2701,1.2712,1.2578,1.2578,1.2578,1.2578,0,1.195,1.201,1.2051,1.2125,1.2167,1.2228,1.2266,1.2306,1.2319,1.2349,1.2428,1.2477,1.2544,1.2567,1.258,1.2662,1.2654,1.2648,1.2626,1.2682,1.2711,1.2722,1.258,1.258,1.2579,1.2579,0,0,1.2014,1.2104,1.2119,1.2153,1.2222,1.2269,1.2332,1.2398,1.2432,1.2484,1.2538,1.2622,1.2617,1.2656,1.2674,1.2716,1.278,1.2705,1.2706,1.2719,1.2876,1.2882,1.2894,1.2783,1.2786,1.2788,1.2872,0,1.2086,1.2198,1.2226,1.2322,1.2379,1.2394,1.2449,1.2497,1.2527,1.258,1.2613,1.2673,1.2661,1.2685,1.2726,1.2763,1.2812,1.2757,1.2836,1.2838,1.2823,1.2909,1.2915,1.2992,1.2883,1.2885,1.2886,0,1.2185,1.2241,1.2343,1.2407,1.2432,1.248,1.2545,1.2595,1.2651,1.267,1.2714,1.2729,1.2796,1.277,1.2864,1.2826,1.286,1.2883,1.2887,1.2896,1.2867,1.2923,1.3017,1.3029,1.2904,1.2902,1.2901,0,1.2224,1.2324,1.2399,1.2428,1.2504,1.2538,1.2571,1.2625,1.2664,1.272,1.2746,1.2809,1.2844,1.2893,1.2925,1.2903,1.3017,1.2993,1.3036,1.3036,1.3061,1.3059,1.3163,1.3079,1.3079,1.3079,1.3079,0,1.2303,1.2366,1.2418,1.2464,1.2535,1.2567,1.2637,1.267,1.2719,1.2772,1.2788,1.2838,1.2876,1.2932,1.2957,1.3033,1.3048,1.3066,1.3073,1.3066,1.3064,1.309,1.3086,1.3082,1.3081,1.3081,1.308,0,1.2359,1.2396,1.2479,1.2545,1.2563,1.2612,1.2669,1.2715,1.2745,1.2813,1.2831,1.288,1.2946,1.2983,1.3066,1.3083,1.3168,1.3171,1.315,1.3153,1.3195,1.3191,1.332,1.334,1.3241,1.3242,1.3243,0,1.2408,1.2456,1.2528,1.2565,1.2599,1.2659,1.2699,1.2733,1.2774,1.2843,1.2881,1.2949,1.3005,1.3111,1.3154,1.3218,1.3224,1.3265,1.3234,1.3226,1.3227,1.3225,1.3231,1.3271,1.3272,1.3272,1.3273,0,1.2491,1.2508,1.2565,1.263,1.2678,1.2731,1.2783,1.2813,1.2855,1.2901,1.297,1.3014,1.31,1.3167,1.3236,1.327,1.328,1.3282,1.3296,1.3291,1.3278,1.3288,1.3167,1.3279,1.3279,1.3278,1.3278,1.3278,1.2546,1.2591,1.2649,1.2714,1.2757,1.2806,1.2853,1.289,1.2948,1.3022,1.3038,1.3111,1.3168,1.3261,1.3298,1.3356,1.3348,1.3367,1.3373,1.3378,1.338,1.3267,1.3368,1.3368,1.3368,1.3368,1.3368,0,1.2632,1.2671,1.273,1.2803,1.2854,1.2858,1.2917,1.296,1.3024,1.3076,1.3132,1.3212,1.3279,1.3328,1.3396,1.3433,1.3439,1.345,1.3449,1.3457,1.3382,1.3365,1.3444,1.3444,1.3444,1.3444,1.3444,1.3444,1.2683,1.276,1.2784,1.2884,1.2922,1.2994,1.3028,1.3074,1.3116,1.3205,1.3261,1.3292,1.3344,1.3416,1.3478,1.3491,1.3516,1.3527,1.354,1.347,1.3462,1.3454,1.3438,1.3532,1.3532,1.3611,1.3611,1.3612]}]]